Estación de Huelquen

Ultimos registro cada 15 minutos 39
Estación Fecha / Hora Temperatura Humedad Lluvia Velocidad Dirección Radiación Presion
39 Huelquen 06-05-2026 09:30 13,8 89 0 0 98 438 1016,6
38 Huelquen 06-05-2026 09:15 12,3 91 0 0 113 267 1016,7
37 Huelquen 06-05-2026 09:00 11,5 92 0 0 180 214 1016,7
36 Huelquen 06-05-2026 08:45 10,5 94 0 0 263 176 1016,6
35 Huelquen 06-05-2026 08:30 8,8 93 0 0 257 91 1016,5
34 Huelquen 06-05-2026 08:15 7,7 90 0 0 274 79 1016,3
33 Huelquen 06-05-2026 08:00 7,1 88 0 0 269 18 1016,1
32 Huelquen 06-05-2026 07:45 7,1 88 0 0 269 9 1016,2
31 Huelquen 06-05-2026 07:30 7,3 87 0 0 269 5 1016
30 Huelquen 06-05-2026 07:15 7,5 88 0 0 269 0 1015,5
29 Huelquen 06-05-2026 07:00 7,6 87 0 0 269 0 1015,4
28 Huelquen 06-05-2026 06:45 7,8 88 0 0 269 0 1015,4
27 Huelquen 06-05-2026 06:30 8,2 88 0 0 271 0 1015,1
26 Huelquen 06-05-2026 06:15 8,4 88 0 0 271 0 1015,1
25 Huelquen 06-05-2026 06:00 8,6 88 0 0 272 0 1015,2
24 Huelquen 06-05-2026 05:45 8,4 88 0 0 276 0 1014,9
23 Huelquen 06-05-2026 05:30 8,2 88 0 0 245 0 1014,7
22 Huelquen 06-05-2026 05:15 7,7 87 0 0 245 0 1014,5
21 Huelquen 06-05-2026 05:00 7,4 86 0 0 245 0 1014,3
20 Huelquen 06-05-2026 04:45 7,6 87 0 0 245 0 1013,8
19 Huelquen 06-05-2026 04:30 7,4 86 0 0 245 0 1013,7
18 Huelquen 06-05-2026 04:15 7,8 86 0 0 283 0 1013,9
17 Huelquen 06-05-2026 04:00 8 86 0 0 283 0 1014,4
16 Huelquen 06-05-2026 03:45 7,9 85 0 0 283 0 1014,4
15 Huelquen 06-05-2026 03:30 8,2 84 0 0 283 0 1013,9
14 Huelquen 06-05-2026 03:15 8,8 84 0 0 283 0 1013,8
13 Huelquen 06-05-2026 03:00 9,4 85 0 0 283 0 1013,7
12 Huelquen 06-05-2026 02:45 10 84 0 0 283 0 1013,8
11 Huelquen 06-05-2026 02:30 10,5 85 0 0 283 0 1014,1
10 Huelquen 06-05-2026 02:15 10,6 86 0 0 283 0 1014,4
9 Huelquen 06-05-2026 02:00 10,8 85 0 0 283 0 1014,3
8 Huelquen 06-05-2026 01:45 10,5 86 0 0 269 0 1014,2
7 Huelquen 06-05-2026 01:30 10,6 85 0 0 269 0 1014,5
6 Huelquen 06-05-2026 01:15 10,6 85 0 0 269 0 1014,7
5 Huelquen 06-05-2026 01:00 10,7 85 0 0 269 0 1014,7
4 Huelquen 06-05-2026 00:45 10,8 84 0 0 269 0 1014,7
3 Huelquen 06-05-2026 00:30 11 84 0 0 269 0 1014,8
2 Huelquen 06-05-2026 00:15 11,2 84 0 0 269 0 1014,9
1 Huelquen 06-05-2026 00:00 11,2 84 0 0 269 0 1014,8